リニア彗星

294P/LINEAR (2019)

English version
Home page
Updated on June 29, 2020

---------------------------------------------------------------------

・ プロフィール

・ 軌道要素

Epoch 2019 Nov. 13.0 TT = JDT 2458800.5
T 2019 Nov. 29.72367 TT                                 Rudenko
q   1.3005083            (2000.0)            P               Q
n   0.17180971     Peri.  235.53092     -0.95954089     +0.16228597
a   3.2045785      Node   312.59851     -0.00157760     -0.82028003
e   0.5941718      Incl.   18.21495     -0.28156491     -0.54845596
P   5.74
From 209 observations 2008 Jan. 13-2020 June 24, mean residual 0".5.

・ 光度変化

        H = 16.5  G = 0.15

---------------------------------------------------------------------

軌道要素はM.P.E.C. 2020-M114に掲載されたものです。
光度グラフはComet for Windowsで作成したものです。

---------------------------------------------------------------------

Copyright(C) Seiichi Yoshida (comet@aerith.net). All rights reserved.